• En España
  • Lista de países
  • Para 7 días
  • Temperatura del agua
  • Mapa Satelital
  • El tiempo en el mapa
  • Informadores
  • user-avatar
    Iniciar sesión

    Tiempo cada hora Shumen

    Hoy, 15 Noviembre, Jueves

    Tiempo Temperatura Precipitaciones Viento Presión Humedad
    00:00 +7°C° 0.3 mm 2 mps 735 mmHg 79%
    01:00 +6°C° 0.3 mm 2 mps 735 mmHg 81%
    02:00 +5°C° 0 mm 3 mps 734 mmHg 82%
    03:00 +5°C° 1 mm 3 mps 734 mmHg 84%
    04:00 +4°C° 1 mm 3 mps 734 mmHg 85%
    05:00 +4°C° 1 mm 4 mps 734 mmHg 87%
    06:00 +4°C° 0.4 mm 4 mps 734 mmHg 87%
    07:00 +4°C° 0.4 mm 4 mps 734 mmHg 86%
    08:00 +4°C° 0 mm 4 mps 735 mmHg 85%
    09:00 +5°C° 0 mm 4 mps 735 mmHg 81%
    10:00 +5°C° 0 mm 5 mps 735 mmHg 78%
    11:00 +6°C° 0 mm 5 mps 735 mmHg 74%
    12:00 +6°C° 0.2 mm 5 mps 735 mmHg 73%
    13:00 +6°C° 0.2 mm 5 mps 735 mmHg 72%
    14:00 +7°C° 0 mm 5 mps 735 mmHg 70%
    15:00 +6°C° 0.1 mm 5 mps 735 mmHg 73%
    16:00 +6°C° 0.1 mm 5 mps 735 mmHg 75%
    17:00 +5°C° 0.1 mm 5 mps 735 mmHg 77%
    18:00 +5°C° 0 mm 5 mps 735 mmHg 78%
    19:00 +5°C° 0 mm 5 mps 735 mmHg 79%
    20:00 +3°C° 0 mm 5 mps 735 mmHg 80%
    21:00 +3°C° 0 mm 5 mps 736 mmHg 80%
    22:00 +3°C° 0 mm 4 mps 736 mmHg 81%
    23:00 +1°C° 0 mm 4 mps 736 mmHg 81%

    Mañana, 16 Noviembre, Viernes

    Tiempo Temperatura Precipitaciones Viento Presión Humedad
    00:00 +1°C° 0 mm 4 mps 736 mmHg 83%
    01:00 0°C° 0 mm 4 mps 736 mmHg 84%
    02:00 0°C° 0 mm 4 mps 736 mmHg 86%
    03:00 0°C° 0 mm 4 mps 736 mmHg 86%
    04:00 -1°C° 0 mm 4 mps 737 mmHg 86%
    05:00 -1°C° 0 mm 4 mps 737 mmHg 87%
    06:00 -1°C° 0 mm 4 mps 737 mmHg 85%
    07:00 0°C° 0 mm 4 mps 737 mmHg 83%
    08:00 0°C° 0 mm 4 mps 737 mmHg 81%
    09:00 0°C° 0 mm 5 mps 738 mmHg 79%
    10:00 +1°C° 0 mm 5 mps 738 mmHg 76%
    11:00 +1°C° 0 mm 5 mps 738 mmHg 73%
    12:00 +1°C° 0 mm 5 mps 738 mmHg 70%
    13:00 +1°C° 0 mm 6 mps 738 mmHg 68%
    14:00 +1°C° 0 mm 6 mps 738 mmHg 65%
    15:00 0°C° 0 mm 5 mps 738 mmHg 64%
    16:00 0°C° 0 mm 5 mps 738 mmHg 62%
    17:00 -1°C° 0 mm 5 mps 738 mmHg 61%
    18:00 -1°C° 0 mm 5 mps 739 mmHg 65%
    19:00 -2°C° 0 mm 4 mps 739 mmHg 70%
    20:00 -2°C° 0 mm 4 mps 739 mmHg 75%
    21:00 -2°C° 0.1 mm 4 mps 739 mmHg 77%
    22:00 -2°C° 0.1 mm 4 mps 739 mmHg 79%
    23:00 -2°C° 0.1 mm 4 mps 739 mmHg 80%

    Pasado mañana, 17 Noviembre, Sábado

    Tiempo Temperatura Precipitaciones Viento Presión Humedad
    00:00 -2°C° 0 mm 4 mps 739 mmHg 82%
    01:00 -3°C° 0 mm 4 mps 739 mmHg 83%
    02:00 -3°C° 0 mm 4 mps 739 mmHg 84%
    03:00 -3°C° 0.1 mm 4 mps 739 mmHg 85%
    04:00 -3°C° 0.1 mm 4 mps 739 mmHg 86%
    05:00 -3°C° 0.1 mm 4 mps 739 mmHg 87%
    06:00 -2°C° 0.4 mm 4 mps 739 mmHg 88%
    07:00 -2°C° 0.4 mm 4 mps 739 mmHg 88%
    08:00 -2°C° 0.4 mm 4 mps 739 mmHg 89%
    09:00 -2°C° 0.6 mm 4 mps 739 mmHg 89%
    10:00 -2°C° 0.6 mm 4 mps 739 mmHg 89%
    11:00 -2°C° 0.6 mm 5 mps 739 mmHg 89%
    12:00 -2°C° 0.5 mm 5 mps 738 mmHg 90%
    13:00 -1°C° 0.5 mm 5 mps 738 mmHg 91%
    14:00 -1°C° 0.5 mm 4 mps 738 mmHg 91%
    15:00 -1°C° 0.3 mm 4 mps 738 mmHg 92%
    16:00 -1°C° 0.3 mm 5 mps 738 mmHg 92%
    17:00 -1°C° 0.3 mm 5 mps 738 mmHg 92%
    18:00 -1°C° 0.1 mm 5 mps 738 mmHg 92%
    19:00 -1°C° 0.1 mm 5 mps 738 mmHg 92%
    20:00 -1°C° 0.1 mm 5 mps 738 mmHg 92%
    21:00 -1°C° 0.1 mm 4 mps 738 mmHg 92%
    22:00 -1°C° 0.1 mm 4 mps 738 mmHg 92%
    23:00 -2°C° 0.1 mm 4 mps 738 mmHg 92%

    18 Noviembre, Domingo

    Tiempo Temperatura Precipitaciones Viento Presión Humedad
    00:00 -2°C° 0.2 mm 4 mps 738 mmHg 91%
    01:00 -2°C° 0.2 mm 4 mps 738 mmHg 91%
    02:00 -1°C° 0.2 mm 3 mps 737 mmHg 91%
    03:00 -1°C° 0.1 mm 3 mps 737 mmHg 91%
    04:00 -1°C° 0.1 mm 3 mps 737 mmHg 91%
    05:00 -1°C° 0.1 mm 3 mps 737 mmHg 91%
    06:00 -1°C° 0.1 mm 3 mps 737 mmHg 91%
    07:00 -1°C° 0.1 mm 3 mps 737 mmHg 91%
    08:00 -1°C° 0.1 mm 2 mps 737 mmHg 91%
    09:00 -1°C° 0 mm 2 mps 736 mmHg 90%
    10:00 +1°C° 0 mm 2 mps 736 mmHg 89%
    11:00 +1°C° 0 mm 2 mps 736 mmHg 88%
    12:00 +2°C° 0 mm 2 mps 736 mmHg 87%
    13:00 +2°C° 0 mm 2 mps 735 mmHg 86%
    14:00 +3°C° 0 mm 2 mps 734 mmHg 85%
    15:00 +3°C° 0 mm 1 mps 734 mmHg 86%
    16:00 +3°C° 0 mm 1 mps 734 mmHg 88%
    17:00 +3°C° 0 mm 1 mps 733 mmHg 89%
    18:00 +3°C° 0 mm 1 mps 733 mmHg 89%
    19:00 +3°C° 0 mm 1 mps 733 mmHg 89%
    20:00 +3°C° 0 mm 1 mps 732 mmHg 89%
    21:00 +3°C° 0 mm 1 mps 732 mmHg 88%
    22:00 +2°C° 0 mm 2 mps 732 mmHg 88%
    23:00 +2°C° 0 mm 2 mps 731 mmHg 87%

    19 Noviembre, Lunes

    Tiempo Temperatura Precipitaciones Viento Presión Humedad
    00:00 +2°C° 0.3 mm 2 mps 731 mmHg 89%
    01:00 +2°C° 0.3 mm 2 mps 731 mmHg 90%
    02:00 +2°C° 0.3 mm 2 mps 730 mmHg 92%
    03:00 +2°C° 0.7 mm 2 mps 730 mmHg 93%
    04:00 +3°C° 0.7 mm 2 mps 730 mmHg 93%
    05:00 +3°C° 0.7 mm 2 mps 729 mmHg 94%
    06:00 +2°C° 0.5 mm 3 mps 729 mmHg 95%
    07:00 +2°C° 0.5 mm 3 mps 729 mmHg 95%
    08:00 +3°C° 0.5 mm 3 mps 729 mmHg 95%
    09:00 +3°C° 0.3 mm 3 mps 729 mmHg 94%
    10:00 +4°C° 0.3 mm 4 mps 729 mmHg 92%
    11:00 +5°C° 0.3 mm 4 mps 729 mmHg 91%
    12:00 +5°C° 0.2 mm 4 mps 729 mmHg 90%
    13:00 +6°C° 0.2 mm 4 mps 729 mmHg 90%
    14:00 +6°C° 0.2 mm 4 mps 728 mmHg 89%
    15:00 +6°C° 0.1 mm 4 mps 728 mmHg 91%
    16:00 +7°C° 0.1 mm 3 mps 728 mmHg 92%
    17:00 +7°C° 0.1 mm 3 mps 728 mmHg 93%
    18:00 +7°C° 0.1 mm 3 mps 728 mmHg 94%
    19:00 +7°C° 0.1 mm 2 mps 729 mmHg 95%
    20:00 +7°C° 0.1 mm 2 mps 729 mmHg 95%
    21:00 +7°C° 0 mm 2 mps 729 mmHg 96%
    22:00 +7°C° 0 mm 2 mps 729 mmHg 96%
    23:00 +8°C° 0 mm 1 mps 729 mmHg 96%

    20 Noviembre, Martes

    Tiempo Temperatura Precipitaciones Viento Presión Humedad
    00:00 +7°C° 0 mm 1 mps 729 mmHg 96%
    01:00 +7°C° 0 mm 1 mps 729 mmHg 97%
    02:00 +7°C° 0 mm 1 mps 729 mmHg 97%
    03:00 +7°C° 0 mm 1 mps 729 mmHg 96%
    04:00 +8°C° 0 mm 1 mps 729 mmHg 96%
    05:00 +7°C° 0 mm 2 mps 729 mmHg 96%
    06:00 +7°C° 0 mm 2 mps 730 mmHg 96%
    07:00 +7°C° 0 mm 2 mps 730 mmHg 96%
    08:00 +8°C° 0 mm 2 mps 730 mmHg 96%
    09:00 +9°C° 0 mm 3 mps 730 mmHg 94%
    10:00 +10°C° 0 mm 3 mps 730 mmHg 91%
    11:00 +11°C° 0 mm 4 mps 730 mmHg 89%
    12:00 +12°C° 0 mm 4 mps 730 mmHg 88%
    13:00 +12°C° 0 mm 4 mps 729 mmHg 87%
    14:00 +13°C° 0 mm 4 mps 729 mmHg 86%
    15:00 +13°C° 0.2 mm 4 mps 729 mmHg 88%
    16:00 +12°C° 0.2 mm 3 mps 729 mmHg 91%
    17:00 +12°C° 0.2 mm 3 mps 729 mmHg 94%
    18:00 +12°C° 0.2 mm 4 mps 729 mmHg 94%
    19:00 +12°C° 0.2 mm 4 mps 728 mmHg 93%
    20:00 +12°C° 0.2 mm 4 mps 728 mmHg 93%
    21:00 +12°C° 0.2 mm 5 mps 728 mmHg 92%
    22:00 +13°C° 0.2 mm 5 mps 728 mmHg 91%
    23:00 +13°C° 0.2 mm 5 mps 728 mmHg 90%
    Mostrar más